Weather History for Garden City, KS

Change the Weather History Date:

Thursday, December 13, 2012

  Actual Average Record
Temperature  
Mean Temperature 43 °F 32 °F  
Max Temperature 63 °F 44 °F 75 °F (1988)
Min Temperature 22 °F 19 °F -8 °F (1961)
Degree Days  
Heating Degree Days 22 33  
Month to date heating degree days 341 416  
Since 1 July heating degree days 1321 1505  
Cooling Degree Days 0 0  
Month to date cooling degree days 0 0  
Year to date cooling degree days 1643 1298  
Moisture  
Dew Point 14 °F    
Average Humidity 36    
Maximum Humidity 55    
Minimum Humidity 16    
Precipitation  
Precipitation 0.00 in 0.02 in 0.71 in (1984)
Month to date precipitation T 0.23  
Year to date precipitation 12.67 19.18  
Sea Level Pressure  
Sea Level Pressure 29.97 in    
Wind  
Wind Speed 7 mph (SE)    
Max Wind Speed 15 mph    
Max Gust Speed 20 mph    
Visibility 10 miles    
Events      
T = Trace of Precipitation, MM = Missing Value Source: NWS Daily Summary

Daily Weather History Graph

Daily Weather History Graph

Search for Another Location

Airport:

Trip Planner

Search our weather history database for the weather conditions in past years. The results will help you decide how hot, cold, wet, or windy it might be!

Date:

Astronomy

Dec. 13, 2012 Rise Set
Actual Time 7:50 AM CST 5:24 PM CST
Civil Twilight 7:21 AM CST 5:53 PM CST
Nautical Twilight 6:48 AM CST 6:26 PM CST
Astronomical Twilight 6:16 AM CST 6:58 PM CST
Moon 8:01 AM CST (12/13) 6:08 PM CST (12/13)
Length of Visible Light 10h 32m
Length of Day
9h 33m
New Moon, 0% of the Moon is Illuminated
Dec 13
New Moon
Dec 19
First Quarter
Dec 28
Full
Jan 4
Last Quarter
Jan 11
New

Hourly Weather History & Observations

Time (CST) Temp. Windchill Dew Point Humidity Pressure Visibility Wind Dir Wind Speed Gust Speed Precip Events Conditions
12:54 AM 34.0 °F 26.6 °F 12.9 °F 42% 29.92 in 10.0 mi SSW 9.2 mph - N/A   Clear
1:54 AM 32.0 °F - 12.0 °F 44% 29.93 in 10.0 mi Calm Calm - N/A   Clear
2:54 AM 30.9 °F - 12.9 °F 47% 29.94 in 10.0 mi Calm Calm - N/A   Clear
3:54 AM 28.0 °F 20.8 °F 12.9 °F 53% 29.95 in 10.0 mi SW 6.9 mph - N/A   Clear
4:54 AM 28.0 °F 24.2 °F 12.9 °F 53% 29.96 in 10.0 mi WSW 3.5 mph - N/A   Clear
5:54 AM 24.1 °F 15.2 °F 10.9 °F 57% 29.99 in 10.0 mi West 8.1 mph - N/A   Clear
6:54 AM 24.1 °F 13.1 °F 10.9 °F 57% 30.02 in 10.0 mi WSW 11.5 mph - N/A   Clear
7:54 AM 24.1 °F 15.2 °F 10.9 °F 57% 30.04 in 10.0 mi WNW 8.1 mph - N/A   Clear
8:54 AM 30.9 °F 24.3 °F 12.9 °F 47% 30.04 in 10.0 mi NW 6.9 mph - N/A   Clear
9:54 AM 41.0 °F 37.1 °F 16.0 °F 36% 30.02 in 10.0 mi North 5.8 mph - N/A   Clear
10:54 AM 51.1 °F - 16.0 °F 25% 30.01 in 10.0 mi NNE 6.9 mph - N/A   Clear
11:54 AM 57.9 °F - 15.1 °F 19% 29.99 in 10.0 mi NE 10.4 mph - N/A   Clear
12:54 PM 60.1 °F - 15.1 °F 17% 29.98 in 10.0 mi East 8.1 mph - N/A   Clear
1:54 PM 62.1 °F - 16.0 °F 17% 29.96 in 10.0 mi East 5.8 mph - N/A   Clear
2:54 PM 62.1 °F - 16.0 °F 17% 29.94 in 10.0 mi East 6.9 mph - N/A   Clear
3:54 PM 62.1 °F - 16.0 °F 17% 29.95 in 10.0 mi SE 5.8 mph - N/A   Clear
4:54 PM 57.2 °F - 17.6 °F 21% 29.94 in 10.0 mi SE 5.8 mph - N/A   Clear
6:54 PM 41.0 °F 35.2 °F 15.8 °F 36% 29.95 in 10.0 mi ENE 9.2 mph - N/A   Clear
7:54 PM 37.0 °F 29.8 °F 16.0 °F 42% 30.00 in 10.0 mi East 10.4 mph - N/A   Clear
8:54 PM 37.9 °F 31.5 °F 15.1 °F 39% 29.99 in 10.0 mi ESE 9.2 mph - N/A   Clear
9:54 PM 41.0 °F 34.3 °F 14.0 °F 33% 29.96 in 10.0 mi SSE 11.5 mph - N/A   Clear
10:54 PM 36.0 °F 30.3 °F 14.0 °F 41% 29.95 in 10.0 mi SSE 6.9 mph - N/A   Clear
11:54 PM 37.0 °F 31.6 °F 17.1 °F 44% 29.92 in 10.0 mi SSE 6.9 mph - N/A   Clear